Regional Weather Roundup
Issued by NWS Charleston, WV

Home | Current Version | Previous Version | Graphics & Text | Print | Product List | Glossary On
Versions: 1 2 3 4 5 6 7 8 9 10 11 12 13 14 15 16 17 18 19 20 21 22 23 24 25 26 27 28 29 30 31 32 33 34 35 36 37 38 39 40 41 42 43 44 45 46 47 48 49 50
000
ASUS41 KRLX 012010
RWRRLX
West Virginia Regional Weather Roundup
National Weather Service Charleston WV
400 PM EDT WED OCT 01 2014

Note: "fair" indicates few or no clouds below 12,000 feet with no
significant weather and/or obstructions to visibility.

WVZ003-012100-
Northern Panhandle of West Virginia

CITY           SKY/WX    TMP DP  RH WIND       PRES   REMARKS
WHEELING       SUNNY     67  55  65 NE5       30.02S
$$

WVZ009-012100-
Northwest West Virginia

CITY           SKY/WX    TMP DP  RH WIND       PRES   REMARKS
PARKERSBURG    SUNNY     72  49  44 SE3       30.02F
$$

WVZ006-012100-
Western West Virginia

CITY           SKY/WX    TMP DP  RH WIND       PRES   REMARKS
HUNTINGTON     SUNNY     74  61  63 CALM      30.00S
$$

WVZ015-012100-
West Central West Virginia

CITY           SKY/WX    TMP DP  RH WIND       PRES   REMARKS
CHARLESTON     PTSUNNY   68  59  73 N5        30.02S
$$

WVZ031-012100-
North Central West Virginia

CITY           SKY/WX    TMP DP  RH WIND       PRES   REMARKS
CLARKSBURG     MOSUNNY   70  55  59 NW5       30.02F
MORGANTOWN     PTSUNNY   66  56  70 S5        30.04S
$$

WVZ035-042-045-012100-
South Central West Virginia

CITY           SKY/WX    TMP DP  RH WIND       PRES   REMARKS
BECKLEY        MOSUNNY   75  50  41 NW13      30.05R
BLUEFIELD      SUNNY     75  43  31 NW8       30.07F
LEWISBURG      MOSUNNY   76  49  38 NW8       30.03S
$$

WVZ047-012100-
Northern Mountains of West Virginia

CITY           SKY/WX    TMP DP  RH WIND       PRES   REMARKS
ELKINS         SUNNY     70  58  65 NW13      30.03R
$$

WVZ052-012100-
Eastern Panhandle of West Virginia

CITY           SKY/WX    TMP DP  RH WIND       PRES   REMARKS
MARTINSBURG    MOSUNNY   71  58  63 NE3       30.03F
PETERSBURG     CLOUDY   N/A N/A N/A N3        30.02F
$$



USA.gov is the U.S. government's official web portal to all federal, state and local government web resources and services.